• In Belarus
  • List of Countries
  • For 7 days
  • Water Temperature
  • Satellite Maps
  • Weather Map
  • Weather Widgets
  • user-avatar
    Login

    Hourly Weather Melbourne

    Today, 20 November, Monday

    Time Temperature Precipitation Wind Pressure Humidity
    00:00 +19°C° 0 mm 1 mps 764 mmHg 85%
    01:00 +17°C° 0 mm 0 mps 764 mmHg 86%
    02:00 +19°C° 0 mm 1 mps 764 mmHg 86%
    03:00 +19°C° 0 mm 1 mps 764 mmHg 86%
    04:00 +19°C° 0 mm 1 mps 764 mmHg 86%
    05:00 +19°C° 0 mm 2 mps 765 mmHg 79%
    06:00 +20°C° 0 mm 2 mps 765 mmHg 72%
    07:00 +21°C° 0 mm 3 mps 765 mmHg 65%
    08:00 +24°C° 0 mm 3 mps 765 mmHg 58%
    09:00 +26°C° 0 mm 3 mps 765 mmHg 51%
    10:00 +29°C° 0 mm 3 mps 765 mmHg 42%
    11:00 +30°C° 0 mm 2 mps 765 mmHg 40%
    12:00 +31°C° 0 mm 2 mps 765 mmHg 38%
    13:00 +32°C° 0 mm 1 mps 764 mmHg 36%
    14:00 +32°C° 0 mm 2 mps 764 mmHg 36%
    15:00 +32°C° 0 mm 2 mps 764 mmHg 36%
    16:00 +33°C° 0 mm 3 mps 763 mmHg 37%
    17:00 +29°C° 0 mm 3 mps 763 mmHg 44%
    18:00 +27°C° 0 mm 3 mps 763 mmHg 51%
    19:00 +25°C° 0 mm 3 mps 764 mmHg 58%
    20:00 +24°C° 0 mm 2 mps 764 mmHg 60%
    21:00 +23°C° 0 mm 2 mps 764 mmHg 62%
    22:00 +21°C° 0 mm 2 mps 764 mmHg 61%
    23:00 +20°C° 0 mm 2 mps 764 mmHg 61%

    Tomorrow, 21 November, Tuesday

    Time Temperature Precipitation Wind Pressure Humidity
    00:00 +21°C° 0 mm 1 mps 763 mmHg 62%
    01:00 +20°C° 0 mm 1 mps 763 mmHg 63%
    02:00 +20°C° 0 mm 1 mps 763 mmHg 62%
    03:00 +20°C° 0 mm 1 mps 763 mmHg 62%
    04:00 +18°C° 0 mm 2 mps 764 mmHg 61%
    05:00 +20°C° 0 mm 2 mps 764 mmHg 60%
    06:00 +21°C° 0 mm 3 mps 764 mmHg 59%
    07:00 +22°C° 0 mm 3 mps 764 mmHg 59%
    08:00 +25°C° 0 mm 3 mps 764 mmHg 53%
    09:00 +27°C° 0 mm 3 mps 764 mmHg 48%
    10:00 +29°C° 0 mm 3 mps 764 mmHg 42%
    11:00 +31°C° 0 mm 3 mps 764 mmHg 37%
    12:00 +32°C° 0 mm 2 mps 763 mmHg 32%
    13:00 +34°C° 0 mm 2 mps 763 mmHg 28%
    14:00 +34°C° 0 mm 2 mps 762 mmHg 28%
    15:00 +34°C° 0 mm 2 mps 762 mmHg 27%
    16:00 +34°C° 0 mm 2 mps 761 mmHg 27%
    17:00 +31°C° 0 mm 2 mps 761 mmHg 35%
    18:00 +28°C° 0 mm 2 mps 761 mmHg 42%
    19:00 +26°C° 0 mm 2 mps 761 mmHg 49%
    20:00 +25°C° 0 mm 2 mps 762 mmHg 51%
    21:00 +24°C° 0 mm 2 mps 762 mmHg 53%
    22:00 +23°C° 0 mm 2 mps 762 mmHg 55%
    23:00 +21°C° 0 mm 2 mps 762 mmHg 55%

    Day after tomorrow, 22 November, Wednesday

    Time Temperature Precipitation Wind Pressure Humidity
    00:00 +22°C° 0 mm 1 mps 762 mmHg 55%
    01:00 +21°C° 0 mm 1 mps 761 mmHg 55%
    02:00 +21°C° 0 mm 1 mps 761 mmHg 54%
    03:00 +21°C° 0 mm 1 mps 761 mmHg 54%
    04:00 +21°C° 0 mm 1 mps 761 mmHg 53%
    05:00 +21°C° 0 mm 2 mps 761 mmHg 53%
    06:00 +23°C° 0 mm 2 mps 761 mmHg 54%
    07:00 +24°C° 0 mm 3 mps 762 mmHg 54%
    08:00 +26°C° 0 mm 3 mps 762 mmHg 49%
    09:00 +28°C° 0 mm 3 mps 761 mmHg 43%
    10:00 +30°C° 0 mm 3 mps 761 mmHg 38%
    11:00 +31°C° 0 mm 2 mps 761 mmHg 34%
    12:00 +34°C° 0 mm 2 mps 760 mmHg 30%
    13:00 +34°C° 0 mm 1 mps 760 mmHg 26%
    14:00 +34°C° 0 mm 2 mps 759 mmHg 28%
    15:00 +34°C° 0 mm 3 mps 759 mmHg 29%
    16:00 +33°C° 0 mm 3 mps 758 mmHg 31%
    17:00 +30°C° 0 mm 3 mps 758 mmHg 35%
    18:00 +28°C° 0 mm 3 mps 758 mmHg 40%
    19:00 +26°C° 0 mm 3 mps 759 mmHg 44%
    20:00 +24°C° 0 mm 2 mps 759 mmHg 46%
    21:00 +23°C° 0 mm 2 mps 759 mmHg 48%
    22:00 +21°C° 0 mm 1 mps 759 mmHg 51%
    23:00 +20°C° 0 mm 1 mps 759 mmHg 52%

    23 November, Thursday

    Time Temperature Precipitation Wind Pressure Humidity
    00:00 +20°C° 0 mm 1 mps 759 mmHg 53%
    01:00 +19°C° 0 mm 1 mps 758 mmHg 55%
    02:00 +19°C° 0 mm 1 mps 758 mmHg 56%
    03:00 +19°C° 0 mm 1 mps 758 mmHg 57%
    04:00 +18°C° 0 mm 1 mps 758 mmHg 58%
    05:00 +20°C° 0 mm 1 mps 758 mmHg 58%
    06:00 +21°C° 0 mm 1 mps 758 mmHg 58%
    07:00 +22°C° 0 mm 1 mps 758 mmHg 57%
    08:00 +25°C° 0 mm 2 mps 758 mmHg 51%
    09:00 +28°C° 0 mm 2 mps 758 mmHg 44%
    10:00 +30°C° 0 mm 2 mps 758 mmHg 37%
    11:00 +31°C° 0 mm 2 mps 758 mmHg 34%
    12:00 +32°C° 0 mm 2 mps 757 mmHg 31%
    13:00 +34°C° 0 mm 2 mps 757 mmHg 28%
    14:00 +32°C° 0 mm 2 mps 756 mmHg 33%
    15:00 +31°C° 0 mm 2 mps 756 mmHg 37%
    16:00 +30°C° 0 mm 1 mps 755 mmHg 42%
    17:00 +28°C° 0.4 mm 2 mps 756 mmHg 50%
    18:00 +26°C° 0.4 mm 2 mps 756 mmHg 58%
    19:00 +24°C° 0.4 mm 3 mps 756 mmHg 66%
    20:00 +23°C° 0.1 mm 2 mps 756 mmHg 67%
    21:00 +21°C° 0.1 mm 2 mps 757 mmHg 68%
    22:00 +22°C° 0.1 mm 1 mps 757 mmHg 70%
    23:00 +21°C° 0 mm 1 mps 757 mmHg 69%

    24 November, Friday

    Time Temperature Precipitation Wind Pressure Humidity
    00:00 +21°C° 0 mm 1 mps 757 mmHg 68%
    01:00 +21°C° 0 mm 1 mps 757 mmHg 68%
    02:00 +21°C° 0 mm 1 mps 757 mmHg 69%
    03:00 +20°C° 0 mm 1 mps 757 mmHg 70%
    04:00 +20°C° 0 mm 1 mps 757 mmHg 71%
    05:00 +21°C° 0 mm 1 mps 757 mmHg 69%
    06:00 +21°C° 0 mm 2 mps 758 mmHg 66%
    07:00 +23°C° 0 mm 2 mps 758 mmHg 64%
    08:00 +26°C° 0 mm 2 mps 758 mmHg 55%
    09:00 +28°C° 0 mm 2 mps 758 mmHg 47%
    10:00 +31°C° 0 mm 2 mps 758 mmHg 39%
    11:00 +31°C° 0 mm 2 mps 758 mmHg 37%
    12:00 +33°C° 0 mm 3 mps 758 mmHg 35%
    13:00 +33°C° 0 mm 4 mps 758 mmHg 33%
    14:00 +33°C° 0 mm 4 mps 758 mmHg 34%
    15:00 +32°C° 0 mm 4 mps 758 mmHg 36%
    16:00 +32°C° 0 mm 4 mps 757 mmHg 37%
    17:00 +29°C° 0 mm 3 mps 758 mmHg 42%
    18:00 +27°C° 0 mm 3 mps 758 mmHg 48%
    19:00 +25°C° 0 mm 2 mps 759 mmHg 54%
    20:00 +24°C° 0 mm 2 mps 759 mmHg 58%
    21:00 +23°C° 0 mm 2 mps 759 mmHg 62%
    22:00 +22°C° 0 mm 1 mps 760 mmHg 66%
    23:00 +22°C° 0.1 mm 1 mps 759 mmHg 69%

    25 November, Saturday

    Time Temperature Precipitation Wind Pressure Humidity
    00:00 +21°C° 0.1 mm 1 mps 759 mmHg 73%
    01:00 +21°C° 0.1 mm 1 mps 759 mmHg 76%
    02:00 +21°C° 0.2 mm 1 mps 759 mmHg 79%
    03:00 +20°C° 0.2 mm 1 mps 759 mmHg 81%
    04:00 +18°C° 0.2 mm 0 mps 759 mmHg 84%
    05:00 +19°C° 0.1 mm 0 mps 759 mmHg 82%
    06:00 +19°C° 0.1 mm 0 mps 760 mmHg 81%
    07:00 +20°C° 0.1 mm 0 mps 760 mmHg 80%
    08:00 +24°C° 0 mm 1 mps 760 mmHg 69%
    09:00 +27°C° 0 mm 1 mps 760 mmHg 58%
    10:00 +29°C° 0 mm 1 mps 760 mmHg 47%
    11:00 +30°C° 0 mm 2 mps 759 mmHg 43%
    12:00 +32°C° 0 mm 2 mps 758 mmHg 38%
    13:00 +34°C° 0 mm 3 mps 758 mmHg 34%
    14:00 +33°C° 0 mm 3 mps 758 mmHg 37%
    15:00 +33°C° 0 mm 3 mps 757 mmHg 40%
    16:00 +31°C° 0 mm 3 mps 757 mmHg 43%
    17:00 +29°C° 0.2 mm 3 mps 757 mmHg 50%
    18:00 +27°C° 0.2 mm 3 mps 758 mmHg 57%
    19:00 +25°C° 0.2 mm 3 mps 758 mmHg 64%
    20:00 +24°C° 0 mm 2 mps 758 mmHg 67%
    21:00 +23°C° 0 mm 2 mps 758 mmHg 70%
    22:00 +22°C° 0 mm 1 mps 758 mmHg 73%
    23:00 +22°C° 0 mm 1 mps 758 mmHg 73%
    Show more